FW0418 Weather Reports


Display with metric or nautical units.
time (UTC)temp
F
wind
direction
speed
MPH
gust
MPH
rain 1hr
in
rain 24hr
in
rain mn
in
humidity
%
barometer
mb
20260510103005 49 301 0.0 0.0 0.00 0.00 0.00 97 1011.9
20260510101505 49 301 0.0 0.0 0.00 0.00 0.00 97 1011.7
20260510101503 49 301 0.0 0.0 0.00 0.00 0.00 97 1011.7
20260510100008 49 301 0.0 0.0 0.00 0.00 0.00 97 1011.3
20260510094508 49 301 0.0 0.0 0.00 0.00 0.00 97 1011.1
20260510094505 49 301 0.0 0.0 0.00 0.00 0.00 97 1011.1
20260510093004 49 301 0.0 0.0 0.00 0.00 0.00 97 1010.9
20260510091506 50 301 0.0 0.0 0.00 0.00 0.00 97 1011.1
20260510090006 50 301 0.0 0.0 0.00 0.00 0.00 97 1010.8
20260510084503 49 301 0.0 0.0 0.00 0.00 0.00 97 1010.8
20260510083005 49 302 0.0 0.0 0.00 0.00 0.00 97 1011.0
20260510083003 49 302 0.0 0.0 0.00 0.00 0.00 97 1011.0
20260510081507 49 302 0.0 1.0 0.00 0.00 0.00 97 1011.1
20260510081505 49 302 0.0 1.0 0.00 0.00 0.00 97 1011.1
20260510080005 48 299 0.0 2.0 0.00 0.00 0.00 97 1011.3
20260510074504 48 302 1.0 4.0 0.00 0.00 0.00 95 1010.6
20260510073006 49 297 0.0 0.0 0.00 0.00 0.00 97 1010.3
20260510073004 49 297 0.0 0.0 0.00 0.00 0.00 97 1010.3
20260510071505 48 298 0.0 0.0 0.00 0.00 0.00 97 1010.3
20260510071503 48 298 0.0 0.0 0.00 0.00 0.00 97 1010.3
20260510070006 47 298 0.0 0.0 0.00 0.00 0.00 96 1010.3
20260510064504 49 214 0.0 0.0 0.00 0.00 0.00 96 1010.0
20260510063004 49 214 0.0 0.0 0.00 0.00 0.00 96 1010.0
20260510061504 49 214 0.0 0.0 0.00 0.00 0.00 96 1009.8
20260510060012 49 214 0.0 0.0 0.00 0.00 0.00 96 1009.8
20260510060007 49 214 0.0 0.0 0.00 0.00 0.00 96 1009.8
20260510054503 49 214 0.0 0.0 0.00 0.00 0.00 96 1010.0
20260510053002 49 214 0.0 0.0 0.00 0.00 0.00 96 1010.1
20260510051504 50 214 0.0 0.0 0.00 0.00 0.00 96 1010.2
20260510050006 49 214 0.0 0.0 0.00 0.00 0.00 96 1010.3
20260510044504 49 214 0.0 0.0 0.00 0.00 0.00 96 1010.3
20260510043004 49 214 0.0 0.0 0.00 0.00 0.00 96 1010.4
20260510041504 50 214 0.0 0.0 0.00 0.00 0.00 95 1010.5
20260510040007 50 214 0.0 0.0 0.00 0.00 0.00 95 1010.5
20260510034504 50 214 0.0 0.0 0.00 0.00 0.00 95 1010.5
20260510033004 50 214 0.0 0.0 0.00 0.00 0.00 95 1010.5
20260510031507 50 214 0.0 0.0 0.00 0.00 0.00 95 1010.4
20260510031504 50 214 0.0 0.0 0.00 0.00 0.00 95 1010.5
20260510030010 50 214 0.0 0.0 0.00 0.00 0.00 94 1010.4
20260510030007 50 214 0.0 0.0 0.00 0.00 0.00 94 1010.4
20260510024504 50 214 0.0 0.0 0.00 0.00 0.00 94 1010.3
20260510023004 51 214 0.0 0.0 0.00 0.00 0.00 94 1010.2
20260510021504 51 214 0.0 0.0 0.00 0.00 0.00 94 1010.4
20260510021502 51 214 0.0 0.0 0.00 0.00 0.00 94 1010.3
20260510020006 51 214 0.0 0.0 0.00 0.00 0.00 93 1010.3
20260510014506 51 214 0.0 0.0 0.00 0.00 0.00 93 1009.9
20260510014504 51 214 0.0 0.0 0.00 0.00 0.00 93 1010.0
20260510013005 52 214 0.0 0.0 0.00 0.00 0.00 92 1009.9
20260510011504 53 214 0.0 1.0 0.00 0.00 0.00 92 1009.6
20260510010006 53 214 0.0 2.0 0.00 0.00 0.00 92 1009.5
20260510004504 54 214 0.0 0.0 0.00 0.00 0.00 91 1009.4
20260510003004 54 214 0.0 1.0 0.00 0.00 0.00 90 1009.3
20260510001505 55 213 0.0 1.0 0.00 0.00 0.00 90 1009.1
20260510001503 55 213 0.0 1.0 0.00 0.00 0.00 90 1008.9
20260510000009 56 213 0.0 1.0 0.00 0.00 0.00 89 1009.0
20260510000007 56 213 0.0 1.0 0.00 0.00 0.00 89 1009.1
20260509234504 57 214 0.0 1.0 0.00 0.00 0.00 88 1009.2
20260509233004 58 215 1.0 4.0 0.00 0.00 0.00 87 1009.2
20260509231505 60 219 0.0 1.0 0.00 0.00 0.00 85 1009.1
20260509231503 60 219 0.0 1.0 0.00 0.00 0.00 85 1009.0
20260509230005 61 219 0.0 2.0 0.00 0.00 0.00 83 1009.0
20260509224504 61 219 0.0 2.0 0.00 0.00 0.00 79 1009.0
20260509224502 61 219 0.0 2.0 0.00 0.00 0.00 79 1008.9
20260509223004 62 219 0.0 0.0 0.00 0.00 0.00 76 1009.1
20260509221504 62 219 0.0 1.0 0.00 0.00 0.00 77 1009.2
20260509220007 61 219 0.0 1.0 0.00 0.00 0.00 78 1009.2
20260509220005 61 219 0.0 1.0 0.00 0.00 0.00 78 1009.1
20260509214505 61 219 0.0 0.0 0.00 0.00 0.00 79 1009.1
20260509213005 60 219 0.0 1.0 0.00 0.00 0.00 81 1009.2
20260509213003 60 219 0.0 1.0 0.00 0.00 0.00 81 1009.0
20260509211508 60 219 0.0 2.0 0.00 0.00 0.00 80 1009.1
20260509211505 60 219 0.0 2.0 0.00 0.00 0.00 80 1009.3
20260509210010 60 219 0.0 1.0 0.00 0.00 0.00 82 1009.2
20260509210006 60 219 0.0 1.0 0.00 0.00 0.00 82 1009.3
20260509204504 60 219 0.0 0.0 0.00 0.00 0.00 84 1009.4
20260509203005 59 219 0.0 0.0 0.00 0.00 0.00 84 1009.1
20260509201504 58 219 0.0 2.0 0.00 0.00 0.00 85 1009.5
20260509201502 58 219 0.0 2.0 0.00 0.00 0.00 85 1009.3
20260509200006 58 219 0.0 1.0 0.00 0.00 0.00 88 1009.5
20260509194504 57 219 0.0 2.0 0.00 0.00 0.00 87 1009.5
20260509194502 57 219 0.0 2.0 0.00 0.00 0.00 87 1009.3
20260509193007 57 219 0.0 3.0 0.00 0.00 0.00 91 1009.4
20260509193004 57 219 0.0 3.0 0.00 0.00 0.00 91 1009.5
20260509191504 56 219 0.0 2.0 0.00 0.00 0.00 91 1009.9
20260509191502 56 219 0.0 2.0 0.00 0.00 0.00 91 1009.8
20260509190007 55 221 0.0 0.0 0.00 0.00 0.00 92 1010.1
20260509184504 55 221 0.0 0.0 0.00 0.00 0.00 93 1010.6
20260509183003 55 221 0.0 0.0 0.00 0.00 0.00 93 1010.5
20260509181503 54 221 0.0 1.0 0.00 0.00 0.00 93 1011.0
20260509180007 54 221 0.0 1.0 0.00 0.00 0.00 93 1011.1
20260509180005 54 221 0.0 1.0 0.00 0.00 0.00 93 1010.9
20260509174504 54 221 0.0 1.0 0.00 0.00 0.00 93 1011.0
20260509173004 55 219 0.0 0.0 0.00 0.00 0.00 93 1011.1
20260509173002 55 219 0.0 0.0 0.00 0.00 0.00 93 1010.9
20260509171505 55 219 0.0 0.0 0.00 0.00 0.00 93 1011.1
20260509170020 56 219 0.0 0.0 0.00 0.00 0.00 92 1011.3
20260509170006 56 219 0.0 0.0 0.00 0.00 0.00 92 1011.4
20260509164503 56 219 0.0 0.0 0.00 0.00 0.00 93 1011.1
20260509163007 56 219 0.0 0.0 0.00 0.00 0.00 92 1011.1
20260509163004 56 219 0.0 0.0 0.00 0.00 0.00 92 1011.3
20260509161505 55 219 0.0 0.0 0.00 0.00 0.00 93 1011.0
20260509160005 55 221 0.0 1.0 0.00 0.00 0.00 94 1010.8
20260509154504 55 226 0.0 0.0 0.00 0.00 0.00 93 1011.3
20260509154502 55 226 0.0 0.0 0.00 0.00 0.00 93 1011.1
20260509153005 55 227 0.0 0.0 0.00 0.00 0.00 92 1011.9
20260509153002 55 227 0.0 0.0 0.00 0.00 0.00 92 1011.7
20260509151503 56 227 0.0 0.0 0.00 0.00 0.00 91 1012.0
20260509150015 56 226 0.0 0.0 0.00 0.00 0.00 89 1012.0
20260509150006 56 226 0.0 0.0 0.00 0.00 0.00 89 1012.2
20260509144505 57 227 0.0 0.0 0.00 0.00 0.00 87 1011.9
20260509143003 57 227 0.0 1.0 0.00 0.00 0.00 85 1011.4
20260509141508 58 226 0.0 0.0 0.00 0.00 0.00 83 1011.2
20260509140006 58 226 0.0 1.0 0.00 0.00 0.00 82 1011.2
20260509134509 58 226 0.0 1.0 0.00 0.00 0.00 81 1011.1
20260509134505 58 226 0.0 1.0 0.00 0.00 0.00 81 1011.3
20260509133006 58 226 0.0 1.0 0.00 0.00 0.00 80 1011.0
20260509133004 58 226 0.0 1.0 0.00 0.00 0.00 80 1010.8
20260509131507 58 226 0.0 2.0 0.00 0.00 0.00 80 1010.9
20260509131505 58 226 0.0 2.0 0.00 0.00 0.00 80 1011.0
20260509130006 57 228 0.0 2.0 0.00 0.00 0.00 81 1010.9
20260509124506 57 227 0.0 2.0 0.00 0.00 0.00 82 1010.9
20260509124504 57 227 0.0 2.0 0.00 0.00 0.00 82 1011.1
20260509123004 56 226 0.0 1.0 0.00 0.00 0.00 83 1010.9
20260509121507 55 226 0.0 1.0 0.00 0.00 0.00 84 1010.9
20260509120007 54 225 0.0 1.0 0.00 0.00 0.00 85 1011.1
20260509120005 54 225 0.0 1.0 0.00 0.00 0.00 85 1011.0
20260509114505 54 225 0.0 0.0 0.00 0.00 0.00 86 1011.1
20260509114503 54 225 0.0 0.0 0.00 0.00 0.00 86 1011.0
20260509113005 53 225 0.0 0.0 0.00 0.00 0.00 87 1010.9
20260509113003 53 225 0.0 0.0 0.00 0.00 0.00 87 1010.8
20260509111504 53 225 0.0 0.0 0.00 0.00 0.00 88 1010.8
20260509110005 52 225 0.0 0.0 0.00 0.00 0.00 88 1010.8
20260509104504 52 225 0.0 0.0 0.00 0.00 0.00 88 1010.8